Zurück zum Katalog

STARLINK-37434

AktivKommunikationVLEO
NORAD 69252·PAYLOAD·🇺🇸 United States

Gestartet May 29, 2026 von Cape Canaveral Space Force Station

Loading…

Nächste Überflüge (nächste 24 Stunden)

TLE

AktuellSource: CelesTrak SupGP

Epoche: Sep 14, 2026, 21:10 UTC

1 69252C 26117Q   26257.88243056 -.00016187  00000+0 -47806-3 0  2578
2 69252  53.1582 179.7885 0001353 104.6597  43.5318 15.34411289    12

Verfolge STARLINK-37434 in Echtzeit mit AllMySat

Download on the App Store